User: anonymous   Login
Location: Brno
(49.2000°N, 16.6330°E)
Time: 08:15:20
(UTC+01:00)
Language:

Cosmos 1459 Rocket - Orbit

View from above orbital plane
View from above orbital plane
View from above satellite
View from above satellite

Ground track
Ground track

The orbit data is extracted from the following two-line orbital elements,

1 14059U 83042B   18051.92865665 +.00000124 +00000-0 +10718-3 0  9995
2 14059 082.9689 237.2903 0041444 288.8387 070.8279 13.78615969749761
Epoch (UTC): 20 February 2018 22:17:15
Eccentricity: 0.0041444
inclination: 82.9689°
perigee height: 938 km
apogee height: 999 km
right ascension of ascending node: 237.2903°
argument of perigee: 288.8387°
revolutions per day: 13.78615969
mean anomaly at epoch: 70.8279°
orbit number at epoch: 74976

The dashed part of the orbit path shows where the satellite is in the earth's shadow,  

DLR